Weather History for Ukiah, CA

Change the Weather History Date:

Sunday, October 21, 2012

  Actual Average Record
Temperature  
Mean Temperature 53 °F 59 °F  
Max Temperature 66 °F 75 °F 96 °F (1929)
Min Temperature 40 °F 43 °F 29 °F (1912)
Degree Days  
Heating Degree Days 10 6  
Month to date heating degree days 86  
Since 1 July heating degree days 119  
Cooling Degree Days 0 0  
Month to date cooling degree days 19  
Year to date cooling degree days 832  
Growing Degree Days 4 (Base 50)    
Moisture  
Dew Point 36 °F    
Average Humidity 51    
Maximum Humidity 76    
Minimum Humidity 26    
Precipitation  
Precipitation 0.00 in 0.07 in 1.44 in (1985)
Month to date precipitation T 0.87  
Year to date precipitation 18.92 24.84  
Since 1 July precipitation T 1.46  
Snow  
Snow 0.00 in - - ()
Month to date snowfall 0.0  
Since 1 July snowfall 0.0  
Since 1 September snowfall 0.0  
Snow Depth -    
Sea Level Pressure  
Sea Level Pressure 29.86 in    
Wind  
Wind Speed 3 mph (NW)    
Max Wind Speed 17 mph    
Max Gust Speed 22 mph    
Visibility 10 miles    
Events Rain    
T = Trace of Precipitation, MM = Missing Value Source: NWS Daily Summary

Daily Weather History Graph

Daily Weather History Graph

Search for Another Location

Airport:

Trip Planner

Search our weather history database for the weather conditions in past years. The results will help you decide how hot, cold, wet, or windy it might be!

Date:

Astronomy

Oct. 21, 2012 Rise Set
Actual Time 7:29 AM PDT 6:24 PM PDT
Civil Twilight 7:02 AM PDT 6:51 PM PDT
Nautical Twilight 6:30 AM PDT 7:23 PM PDT
Astronomical Twilight 5:59 AM PDT 7:54 PM PDT
Moon 1:53 PM PDT (10/21) No Moon Set
Length of Visible Light 11h 49m
Length of Day
10h 55m
Waxing Crescent, 46% of the Moon is Illuminated
Oct 21
Waxing Crescent
Oct 21
First Quarter
Oct 29
Full
Nov 6
Last Quarter
Nov 13
New

Hourly Weather History & Observations

Time (PDT) Temp. Dew Point Humidity Pressure Visibility Wind Dir Wind Speed Gust Speed Precip Events Conditions
12:56 AM 46.9 °F 37.9 °F 71% 29.88 in 10.0 mi Calm Calm - N/A   Clear
1:56 AM 50.0 °F 37.9 °F 63% 29.88 in 10.0 mi NNE 5.8 mph - N/A   Clear
2:56 AM 48.9 °F 37.0 °F 64% 29.88 in 10.0 mi Calm Calm - N/A   Clear
3:56 AM 48.9 °F 37.0 °F 64% 29.88 in 10.0 mi North 4.6 mph - N/A   Clear
4:56 AM 46.9 °F 36.0 °F 66% 29.88 in 10.0 mi Calm Calm - N/A   Clear
5:56 AM 44.1 °F 35.1 °F 71% 29.89 in 10.0 mi Calm Calm - N/A   Clear
6:56 AM 43.0 °F 35.1 °F 74% 29.90 in 10.0 mi Calm Calm - N/A   Clear
7:56 AM 43.0 °F 35.1 °F 74% 29.91 in 10.0 mi Calm Calm - N/A   Clear
9:56 AM 48.0 °F 36.0 °F 63% 29.93 in 10.0 mi Calm Calm - N/A   Clear
10:56 AM 54.0 °F 35.1 °F 49% 29.92 in 10.0 mi Calm Calm - N/A   Clear
11:56 AM 59.0 °F 33.1 °F 38% 29.91 in 10.0 mi SE 3.5 mph - N/A   Clear
12:56 PM 63.0 °F 30.0 °F 29% 29.88 in 10.0 mi Variable 3.5 mph - N/A   Clear
1:56 PM 64.0 °F 30.0 °F 28% 29.86 in 10.0 mi WNW 11.5 mph 20.7 mph N/A   Clear
2:56 PM 66.0 °F 30.9 °F 27% 29.84 in 10.0 mi WNW 10.4 mph - N/A   Clear
3:56 PM 64.9 °F 32.0 °F 29% 29.83 in 10.0 mi West 9.2 mph - N/A   Clear
4:56 PM 63.0 °F 34.0 °F 34% 29.84 in 10.0 mi West 10.4 mph - N/A   Clear
5:56 PM 60.1 °F 35.1 °F 39% 29.83 in 10.0 mi Calm Calm - N/A   Clear
6:56 PM 57.0 °F 37.0 °F 47% 29.83 in 10.0 mi Variable 3.5 mph - N/A   Clear
7:56 PM 54.0 °F 37.0 °F 53% 29.84 in 10.0 mi Calm Calm - N/A   Clear
9:56 PM 52.0 °F 39.0 °F 61% 29.82 in 10.0 mi Calm Calm - N/A   Mostly Cloudy
10:56 PM 50.0 °F 42.1 °F 74% 29.81 in 10.0 mi Calm Calm - 0.01 in Rain Light Rain
11:44 PM 50.0 °F 44.6 °F 82% 29.81 in 10.0 mi Calm Calm - 0.00 in   Overcast
11:56 PM 51.1 °F 43.0 °F 74% 29.80 in 10.0 mi Calm Calm - 0.00 in   Overcast